Home > Time Zones > World Clock > Weather > Mali > Bamako > Past weeks

Flag for Mali Weather past 2 weeks in Bamako, Mali

Now
75 °F

Partly sunny.


Feels Like: 73 °F
Forecast: 73 / 87 °F
Wind: 5 mph from Southwest

Location: Bamako / Senou

Current Time: Aug 4, 2015 at 8:35:28 AM

Latest Report: Aug 4, 2015 at 8:00 AM


Visibility: 4 mi

Pressure: 29.98 "Hg

Humidity: 100%

Dew point: 75 °F

Location of BamakoLocation

Historic Weather in Bamako — Graph

°F

Bamako temperature yesterday

Maximum temperature yesterday: 90 °F (at 5:00 PM)
Minimum temperature yesterday: 75 °F (at 12:00 AM)
Average temperature yesterday: 80 °F

Past Weeks' High & Low Weather Summary

 TemperatureHumidityPressure
High93 °F (Jul 20, 3:30 PM)100% (Jul 20, 7:00 AM)32.90 "Hg (Jul 20, 7:00 AM)
Low70 °F (Jul 23, 3:00 AM)44% (Jul 20, 3:30 PM)29.86 "Hg (Jul 21, 5:30 PM)
Average80 °F84%29.97 "Hg
* Reported Jul 20 7:00 AM — Aug 4 7:30 AM, Bamako, Weather by CustomWeather, © 2015

Note: Actual official high and low records may vary slightly from our data, if they occured in-between our weather recording intervals... More about our weather records

Advertising

Bamako weather history for previous 24 hours

 ConditionsComfort  
Time TempWeatherWind HumidityBarometerVisibility
7:30 AM
Tue, Aug 4
73 °FFog.6 mph100%29.98 "Hg1 mi
7:00 AM73 °FFog.6 mph100%29.95 "Hg1 mi
6:30 AM73 °FFog.6 mph100%29.95 "Hg0 mi
6:00 AM73 °FFog.6 mph100%29.95 "Hg1 mi
5:30 AM73 °FFog.6 mph100%29.95 "Hg1 mi
5:00 AM73 °FFog.6 mph100%29.95 "Hg1 mi
4:30 AM75 °FFog.6 mph100%29.95 "Hg1 mi
4:00 AM75 °FPassing clouds.6 mph100%29.95 "Hg5 mi
3:30 AM75 °FPassing clouds.6 mph100%29.95 "HgN/A
3:00 AM75 °FPassing clouds.2 mph100%29.95 "HgN/A
2:30 AM75 °FPassing clouds.5 mph100%29.95 "HgN/A
2:00 AM75 °FPassing clouds.3 mph100%29.95 "HgN/A
1:30 AM77 °FPassing clouds.1 mph100%29.98 "HgN/A
1:00 AM77 °FPassing clouds.2 mph100%29.98 "HgN/A
12:30 AM77 °FPassing clouds.2 mph100%29.98 "HgN/A
12:00 AM77 °FPassing clouds.2 mph100%29.98 "HgN/A
11:00 PM
Mon, Aug 3
77 °FPassing clouds.2 mph100%30.01 "HgN/A
10:30 PM77 °FPassing clouds.3 mph100%30.01 "HgN/A
9:30 PM77 °FThunderstorms. Partly cloudy.1 mph100%30.01 "HgN/A
9:00 PM77 °FThunderstorms. Partly cloudy.1 mph100%29.98 "HgN/A
8:00 PM79 °FThunderstorms. Partly cloudy.3 mph100%29.95 "HgN/A
7:30 PM79 °FThunderstorms. Passing clouds.3 mph100%29.95 "Hg5 mi
7:00 PM79 °FThunderstorms. Partly cloudy.2 mph94%29.95 "Hg2 mi
6:30 PM81 °FThunderstorms. Broken clouds.5 mph89%29.92 "HgN/A
6:00 PM81 °FThunderstorms. Broken clouds.6 mph94%29.92 "HgN/A
5:30 PM81 °FThunderstorms. Broken clouds.8 mph94%29.92 "HgN/A
5:00 PM90 °FThunderstorms. Broken clouds.1 mph52%29.89 "HgN/A
4:30 PM88 °FThunderstorms. Broken clouds.3 mph59%29.89 "HgN/A
4:00 PM88 °FThunderstorms. Broken clouds.5 mph59%29.92 "HgN/A
3:30 PM88 °FThunderstorms. Broken clouds.5 mph62%29.92 "HgN/A
3:00 PM88 °FThunderstorms. Broken clouds.6 mph62%29.92 "HgN/A
2:30 PM88 °FThunderstorms. Scattered clouds.5 mph62%29.95 "HgN/A
2:00 PM88 °FThunderstorms. Broken clouds.5 mph66%29.95 "HgN/A
1:30 PM86 °FPartly sunny.5 mph66%29.98 "HgN/A
1:00 PM84 °FPartly sunny.7 mph74%29.98 "HgN/A
12:30 PM84 °FPartly sunny.9 mph74%30.01 "HgN/A
12:00 PM84 °FPartly sunny.12 mph70%30.01 "HgN/A
11:30 AM84 °FPartly sunny.12 mph70%30.01 "HgN/A
11:00 AM82 °FPartly sunny.9 mph74%30.01 "HgN/A
10:30 AM82 °FPartly sunny.8 mph74%30.01 "HgN/A
10:00 AM81 °FPartly sunny.10 mph79%29.98 "HgN/A
9:30 AM79 °FPartly sunny.8 mph84%30.01 "HgN/A
9:00 AM79 °FPartly sunny.8 mph84%29.98 "HgN/A
8:30 AM77 °FPartly sunny.9 mph94%29.98 "HgN/A
8:00 AM77 °FPartly sunny.5 mph94%29.98 "HgN/A
Weather by CustomWeather, © 2015

See weather overviewHow to use our weather pages